DW3039 Karjalohja FI current weather conditions

sailwx.info

Wind from 227

Air temperature 0.6° C
Dewpoint 0.6° C

Last reported at 2017-Jan-22 13:48 UTC.
Time now 2017-Jan-22 14:08 UTC

Location: N 60°16' E 023°41'.
View on Google Maps.

See reports from other nearby stations

  
Tides and Currents Weather Stations Pressure Air Temp Water Temp Dewpoint Dewpoint Depression Visibility Wind Speed Wind Dir Waves Ship Positions
date/time (UTC)wind fromknots sea level pressurealtimeterstation pressurevisibilityair tempwater tempwave heightnotes
2017-Jan-22 13:48 227 0.6
2017-Jan-22 13:38 220 0.6
2017-Jan-22 13:28 191 0.6
2017-Jan-22 13:18 191 0.6
2017-Jan-22 13:08 226 1 gusting 4 0.6
2017-Jan-22 12:58 258 0.6
2017-Jan-22 12:48 260 0 gusting 5 0.6
2017-Jan-22 12:38 256 0.6
2017-Jan-22 12:28 208 0 gusting 6 0.6
2017-Jan-22 12:18 230 3 gusting 6 0.6
2017-Jan-22 12:08 226 3 gusting 6 0.6
2017-Jan-22 11:58 227 1 gusting 6 0.6
2017-Jan-22 11:48 242 2 gusting 6 0.6
2017-Jan-22 11:38 251 1 gusting 6 0.6
2017-Jan-22 11:28 228 0 gusting 6 0.6
2017-Jan-22 11:18 261 3 gusting 6 0.6
2017-Jan-22 11:08 261 2 gusting 5 0.6
2017-Jan-22 10:58 260 0 gusting 4 0.6
2017-Jan-22 10:48 236 1 gusting 5 0.6
2017-Jan-22 10:38 227 3 gusting 7 0.6
2017-Jan-22 10:27 231 2 gusting 5 0.6
2017-Jan-22 10:17 210 3 gusting 7 0.6
2017-Jan-22 10:07 227 4 gusting 6 0.6
2017-Jan-22 09:57 230 3 gusting 8 0.6
2017-Jan-22 09:47 232 1 gusting 6 0.6
2017-Jan-22 09:37 245 2 gusting 5 0.6
2017-Jan-22 09:27 251 3 gusting 6 0.6
2017-Jan-22 09:17 243 3 gusting 6 0.6
2017-Jan-22 09:07 228 2 gusting 6 0.6
2017-Jan-22 08:57 229 2 gusting 5 0.6
2017-Jan-22 08:47 225 0 gusting 3 0.6
2017-Jan-22 08:37 231 0 gusting 4 0.6
2017-Jan-22 08:27 237 2 gusting 6 0.6
2017-Jan-22 08:17 247 2 gusting 6 -0.0
2017-Jan-22 08:07 243 4 gusting 6 -0.0
2017-Jan-22 07:57 211 -0.0
2017-Jan-22 07:47 238 3 gusting 6 -0.0
2017-Jan-22 07:37 232 3 gusting 6 -0.0
2017-Jan-22 07:27 246 4 gusting 7 -0.0
2017-Jan-22 07:17 241 4 gusting 6 -0.0
2017-Jan-22 07:07 233 4 gusting 6 -0.0
2017-Jan-22 06:57 245 2 gusting 6 -0.0
2017-Jan-22 06:47 235 2 gusting 5 0.6
2017-Jan-22 06:37 242 4 gusting 6 0.6
2017-Jan-22 06:27 240 4 gusting 7 0.6
2017-Jan-22 06:17 250 4 gusting 7 0.6
2017-Jan-22 06:06 248 2 gusting 7 0.6
2017-Jan-22 05:56 252 5 gusting 9 0.6
2017-Jan-22 05:46 256 1 gusting 7 -0.0
2017-Jan-22 05:36 214 1 gusting 6 -0.0
2017-Jan-22 05:26 223 1 gusting 5 -0.0
2017-Jan-22 05:16 231 1 gusting 4 -0.0
2017-Jan-22 05:06 215 -0.0
2017-Jan-22 04:56 228 -0.0
2017-Jan-22 04:46 240 2 gusting 6 0.6
2017-Jan-22 04:36 244 0 gusting 6 -0.0
2017-Jan-22 04:26 248 0 gusting 8 -0.0
2017-Jan-22 04:16 238 1 gusting 5 -0.0
2017-Jan-22 04:06 240 0 gusting 5 -0.0
2017-Jan-22 03:56 242 2 gusting 6 -0.0
2017-Jan-22 03:46 243 1 gusting 8 0.6
2017-Jan-22 03:36 255 2 gusting 5 -0.0
2017-Jan-22 03:26 234 3 gusting 6 0.6
2017-Jan-22 03:16 250 5 gusting 7 -0.0
2017-Jan-22 03:06 250 2 gusting 6 -0.0
2017-Jan-22 02:56 245 3 gusting 6 -0.0
2017-Jan-22 02:46 252 2 gusting 6 -0.0
2017-Jan-22 02:36 229 0 gusting 8 -0.0
2017-Jan-22 02:26 237 4 gusting 7 -0.0
2017-Jan-22 02:16 247 2 gusting 7 -0.0
2017-Jan-22 02:06 239 3 gusting 8 -0.0
2017-Jan-22 01:56 250 4 gusting 8 -0.0
2017-Jan-22 01:46 239 3 gusting 8 -0.0
2017-Jan-22 01:36 244 4 gusting 8 -0.0
2017-Jan-22 01:26 241 3 gusting 6 -0.0
2017-Jan-22 01:16 256 3 gusting 9 -0.0
2017-Jan-22 01:06 236 4 gusting 8 -0.0
2017-Jan-22 00:56 236 4 gusting 7 -0.0
2017-Jan-22 00:46 235 2 gusting 6 -0.0
2017-Jan-22 00:36 234 1 gusting 6 -0.0
2017-Jan-22 00:26 253 0 gusting 8 -0.0
2017-Jan-22 00:16 239 0 gusting 7 -0.0
2017-Jan-22 00:06 226 4 gusting 7 -0.0
2017-Jan-21 23:56 240 4 gusting 7 -0.0
2017-Jan-21 23:46 238 4 gusting 7 -0.0
2017-Jan-21 23:36 221 5 gusting 7 -0.0
2017-Jan-21 23:25 230 6 gusting 10 -0.0
2017-Jan-21 23:15 221 6 gusting 10 -0.0
2017-Jan-21 23:05 222 4 gusting 9 -0.0
2017-Jan-21 22:55 226 5 gusting 7 -0.0
2017-Jan-21 22:45 236 2 gusting 8 -0.0
2017-Jan-21 22:35 228 5 gusting 11 -0.6
2017-Jan-21 22:25 212 4 gusting 8 -0.6
2017-Jan-21 22:15 218 6 gusting 8 -0.6
2017-Jan-21 22:05 225 3 gusting 9 -0.6
2017-Jan-21 21:55 222 4 gusting 7 -1.1
2017-Jan-21 21:45 238 2 gusting 6 -1.1
2017-Jan-21 21:35 221 -1.1
2017-Jan-21 21:25 221 -1.1
2017-Jan-21 21:15 221 1 gusting 5 -1.1
2017-Jan-21 21:05 245 -1.1
2017-Jan-21 20:55 245 -1.1
2017-Jan-21 20:45 245 -1.1
2017-Jan-21 20:35 245 -1.7
2017-Jan-21 20:25 245 -2.8
2017-Jan-21 20:15 245 -2.8
2017-Jan-21 20:05 245 -2.8
2017-Jan-21 19:55 245 -2.8
2017-Jan-21 19:45 245 -2.8
2017-Jan-21 19:35 245 -2.8
2017-Jan-21 19:25 245 -2.8
2017-Jan-21 19:15 245 -2.8
2017-Jan-21 19:05 245 -2.2
2017-Jan-21 18:55 245 -2.2
2017-Jan-21 18:45 245 -2.2
2017-Jan-21 18:35 245 -1.7
2017-Jan-21 18:25 245 -1.7
2017-Jan-21 18:15 245 -1.1
2017-Jan-21 18:05 245 -1.1
2017-Jan-21 17:55 245 -0.6
2017-Jan-21 17:45 245 -0.6
2017-Jan-21 17:35 245 -0.6
2017-Jan-21 17:25 245 -0.6
2017-Jan-21 17:15 245 -1.7
2017-Jan-21 17:05 225 -1.7
2017-Jan-21 16:55 225 -1.7
2017-Jan-21 16:45 194 -1.7
2017-Jan-21 16:35 265 0 gusting 1 -1.7
2017-Jan-21 16:24 239 -1.1
2017-Jan-21 16:14 242 -1.1
2017-Jan-21 16:04 239 -1.1
2017-Jan-21 15:54 269 -1.1
2017-Jan-21 15:44 269 -0.6
2017-Jan-21 15:34 269 -0.6
2017-Jan-21 15:24 225 -0.6
2017-Jan-21 15:14 246 -0.6
2017-Jan-21 15:04 238 -0.6
2017-Jan-21 14:54 238 -0.0
2017-Jan-21 14:44 238 -0.0
2017-Jan-21 14:34 238 -0.0
2017-Jan-21 14:24 238 -0.0
2017-Jan-21 14:14 250 1 gusting 3 -0.0
2017-Jan-21 14:04 230 -0.0
2017-Jan-21 13:54 250 2 gusting 4 -0.0
2017-Jan-21 13:44 242 -0.0
2017-Jan-21 13:34 251 3 gusting 5 -0.0
2017-Jan-21 13:24 252 2 gusting 5 -0.0
2017-Jan-21 13:14 255 3 gusting 5 -0.0
2017-Jan-21 13:04 250 4 gusting 6 -0.0
2017-Jan-21 12:54 254 3 gusting 7 -0.0
2017-Jan-21 12:44 254 4 gusting 6 -0.0
2017-Jan-21 12:34 258 2 gusting 5 -0.0
2017-Jan-21 12:24 257 3 gusting 6 -0.0
2017-Jan-21 12:13 255 3 gusting 7 -0.0
2017-Jan-21 12:03 257 1 gusting 6 -0.0
2017-Jan-21 11:53 260 3 gusting 6 -0.0
2017-Jan-21 11:43 249 1 gusting 6 -0.0
2017-Jan-21 11:33 258 2 gusting 6 -0.0
2017-Jan-21 11:23 257 3 gusting 6 -0.0
2017-Jan-21 11:13 259 4 gusting 6 -0.6
2017-Jan-21 11:03 246 1 gusting 5 -0.6
2017-Jan-21 10:53 264 1 gusting 5 -0.6
2017-Jan-21 10:43 258 3 gusting 6 -0.6
2017-Jan-21 10:33 259 1 gusting 5 -0.6
2017-Jan-21 10:23 256 2 gusting 6 -0.6
2017-Jan-21 10:13 261 3 gusting 6 -0.6
2017-Jan-21 10:03 267 0 gusting 5 -0.6
2017-Jan-21 09:53 272 0 gusting 6 -0.6
2017-Jan-21 09:43 256 2 gusting 7 -1.1
2017-Jan-21 09:33 250 -1.7
2017-Jan-21 09:23 268 -1.7
2017-Jan-21 09:13 268 -1.7
2017-Jan-21 09:03 268 -1.7
2017-Jan-21 08:53 232 -1.7
2017-Jan-21 08:43 241 0 gusting 3 -1.7
2017-Jan-21 08:33 211 -1.7
2017-Jan-21 08:23 223 -1.7
2017-Jan-21 08:13 223 -1.7
2017-Jan-21 08:02 240 0 gusting 3 -1.7
2017-Jan-21 07:52 234 -1.7
2017-Jan-21 07:42 234 -1.7
2017-Jan-21 07:32 253 0 gusting 5 -1.7
2017-Jan-21 07:22 232 -1.7
2017-Jan-21 07:12 258 0 gusting 5 -1.7
2017-Jan-21 07:02 244 0 gusting 5 -1.7
2017-Jan-21 06:52 241 -1.7
2017-Jan-21 06:42 256 1 gusting 3 -1.7
2017-Jan-21 06:32 221 -1.7
2017-Jan-21 06:22 221 -1.7
2017-Jan-21 06:12 221 -1.1
2017-Jan-21 06:02 221 -1.1
2017-Jan-21 05:52 231 -1.1
2017-Jan-21 05:42 256 1 gusting 4 -1.1
2017-Jan-21 05:32 240 0 gusting 4 -1.1
2017-Jan-21 05:22 255 2 gusting 6 -1.1
2017-Jan-21 05:12 255 2 gusting 6 -1.1
2017-Jan-21 05:02 262 2 gusting 4 -0.6
2017-Jan-21 04:52 273 0 gusting 6 -0.6
2017-Jan-21 04:42 254 3 gusting 6 -0.6
2017-Jan-21 04:32 253 2 gusting 6 -0.6
2017-Jan-21 04:22 238 0 gusting 6 -0.6
2017-Jan-21 04:12 247 0 gusting 6 -0.6
2017-Jan-21 04:02 245 -1.1
2017-Jan-21 03:52 200 -1.1
2017-Jan-21 03:42 242 2 gusting 6 -1.1
2017-Jan-21 03:32 246 3 gusting 8 -1.1
2017-Jan-21 03:22 253 2 gusting 6 -1.1
2017-Jan-21 03:12 231 -1.1
2017-Jan-21 03:02 257 4 gusting 7 -1.1
2017-Jan-21 02:52 246 3 gusting 7 -1.1
2017-Jan-21 02:42 252 -1.1
2017-Jan-21 02:32 242 -1.1
2017-Jan-21 02:22 258 -1.1
2017-Jan-21 02:12 255 4 gusting 6 -1.1
2017-Jan-21 02:02 254 2 gusting 6 -1.1
2017-Jan-21 01:52 291 0 gusting 7 -1.1
2017-Jan-21 01:42 249 3 gusting 6 -1.1
2017-Jan-21 01:32 254 2 gusting 5 -1.1
2017-Jan-21 01:22 260 1 gusting 6 -1.1
2017-Jan-21 01:12 271 1 gusting 6 -1.1
2017-Jan-21 01:02 256 1 gusting 6 -1.1
2017-Jan-21 00:51 254 1 gusting 6 -1.1
2017-Jan-21 00:41 245 -1.1
2017-Jan-21 00:31 265 0 gusting 5 -1.1
2017-Jan-21 00:21 215 -1.1
2017-Jan-21 00:11 252 1 gusting 6 -1.1
2017-Jan-21 00:01 260 2 gusting 7 -1.1
2017-Jan-20 23:51 262 2 gusting 6 -1.1
2017-Jan-20 23:41 253 3 gusting 5 -0.6
2017-Jan-20 23:31 253 3 gusting 6 -0.6
2017-Jan-20 23:21 258 2 gusting 6 -0.6
2017-Jan-20 23:11 249 3 gusting 6 -0.6
2017-Jan-20 23:01 259 0 gusting 5 -0.6
2017-Jan-20 22:51 285 1 gusting 8 -0.6
2017-Jan-20 22:41 258 3 gusting 7 -0.6
2017-Jan-20 22:31 264 2 gusting 6 -0.6
2017-Jan-20 22:21 260 3 gusting 6 -0.6
2017-Jan-20 22:11 252 2 gusting 6 -0.0
2017-Jan-20 22:01 257 1 gusting 6 -0.0
2017-Jan-20 21:51 255 4 gusting 7 -0.0
2017-Jan-20 21:41 255 1 gusting 5 -0.0
2017-Jan-20 21:31 257 2 gusting 6 -0.0
2017-Jan-20 21:21 252 -0.0
2017-Jan-20 21:11 265 1 gusting 7 -0.0
2017-Jan-20 21:01 217 -0.0
2017-Jan-20 20:51 258 0 gusting 3 -0.0
2017-Jan-20 20:41 261 -0.0
2017-Jan-20 20:31 262 2 gusting 5 -0.0
2017-Jan-20 20:21 238 0.6
2017-Jan-20 20:11 238 0.6
2017-Jan-20 20:01 256 2 gusting 4 0.6
2017-Jan-20 19:51 343 0.6
2017-Jan-20 19:41 343 0.6
2017-Jan-20 19:31 350 2 gusting 6 0.6
2017-Jan-20 19:21 270 0 gusting 6 0.6
2017-Jan-20 19:11 339 5 gusting 8 0.6
2017-Jan-20 19:01 334 5 gusting 10 0.6
2017-Jan-20 18:51 336 5 gusting 9 0.6
2017-Jan-20 18:41 312 2 gusting 6 0.6
2017-Jan-20 18:31 328 4 gusting 8 0.6
2017-Jan-20 18:21 287 1 gusting 7 0.6
2017-Jan-20 18:11 267 2 gusting 7 0.6
2017-Jan-20 18:01 254 2 gusting 8 0.6
2017-Jan-20 17:51 268 2 gusting 6 0.6
2017-Jan-20 17:40 271 2 gusting 6 0.6
2017-Jan-20 17:30 282 2 gusting 9 0.6
2017-Jan-20 17:20 260 4 gusting 7 0.6
2017-Jan-20 17:10 296 1 gusting 6 0.6
2017-Jan-20 17:00 288 3 gusting 6 0.6
2017-Jan-20 16:50 269 2 gusting 8 0.6
2017-Jan-20 16:40 283 4 gusting 8 0.6
2017-Jan-20 16:30 276 3 gusting 8 0.6
2017-Jan-20 16:20 302 1 gusting 6 0.6
2017-Jan-20 16:10 321 4 gusting 6 0.6
2017-Jan-20 16:00 300 1 gusting 3 0.6
2017-Jan-20 15:50 326 0 gusting 4 0.6
2017-Jan-20 15:40 295 3 gusting 6 0.6
2017-Jan-20 15:30 272 1 gusting 5 0.6
2017-Jan-20 15:20 255 0 gusting 2 0.6
2017-Jan-20 15:10 271 0.6
2017-Jan-20 15:00 271 0.6
2017-Jan-20 14:50 172 0.6
2017-Jan-20 14:40 172 0.6
2017-Jan-20 14:30 179 0.6
2017-Jan-20 14:20 179 0.6
2017-Jan-20 14:10 179 0.6
2017-Jan-20 14:00 191 0 gusting 4 0.6